| time (UTC) | temp F | wind direction | speed knots | gust knots | rain 1hr in | rain 24hr in | rain mn in | humidity % | barometer mb |
| 20260906174540 | 98 | 271 | 0.9 | 4.3 | 0.00 | 0.00 | 0.00 | 47 | 1012.3 |
| 20260906173040 | 98 | 296 | 0.0 | 2.6 | 0.00 | 0.00 | 0.00 | 48 | 1012.5 |
| 20260906171537 | 97 | 314 | 0.0 | 1.7 | 0.00 | 0.00 | 0.00 | 49 | 1012.9 |
| 20260906170031 | 96 | 292 | 0.0 | 4.3 | 0.00 | 0.00 | 0.00 | 50 | 1013.0 |
| 20260906164528 | 96 | 255 | 0.0 | 4.3 | 0.00 | 0.00 | 0.00 | 51 | 1013.1 |
| 20260906163024 | 95 | 330 | 0.0 | 2.6 | 0.00 | 0.00 | 0.00 | 51 | 1013.3 |
| 20260906161536 | 95 | 312 | 0.9 | 3.5 | 0.00 | 0.00 | 0.00 | 51 | 1013.2 |
| 20260906160021 | 94 | 330 | 0.0 | 2.6 | 0.00 | 0.00 | 0.00 | 54 | 1013.2 |
| 20260906154517 | 93 | 316 | 0.9 | 2.6 | 0.00 | 0.00 | 0.00 | 56 | 1013.1 |
| 20260906153015 | 92 | 286 | 0.9 | 2.6 | 0.00 | 0.00 | 0.00 | 57 | 1013.0 |
| 20260906151513 | 91 | 297 | 0.0 | 2.6 | 0.00 | 0.00 | 0.00 | 60 | 1013.0 |
| 20260906150010 | 90 | 302 | 0.0 | 1.7 | 0.00 | 0.00 | 0.00 | 62 | 1013.0 |
| 20260906144506 | 88 | 321 | 0.9 | 2.6 | 0.00 | 0.00 | 0.00 | 65 | 1013.2 |
| 20260906143004 | 88 | 283 | 0.9 | 2.6 | 0.00 | 0.00 | 0.00 | 65 | 1013.2 |
| 20260906141621 | 86 | 309 | 0.0 | 1.7 | 0.00 | 0.00 | 0.00 | 68 | 1013.1 |
| 20260906140058 | 85 | 297 | 0.0 | 2.6 | 0.00 | 0.00 | 0.00 | 71 | 1013.1 |
| 20260906134553 | 83 | 318 | 0.0 | 2.6 | 0.00 | 0.00 | 0.00 | 73 | 1013.1 |
| 20260906133057 | 82 | 314 | 0.0 | 1.7 | 0.00 | 0.00 | 0.00 | 75 | 1012.9 |
| 20260906131600 | 81 | 283 | 0.0 | 0.9 | 0.00 | 0.00 | 0.00 | 79 | 1012.7 |
| 20260906130056 | 79 | 291 | 0.0 | 1.7 | 0.00 | 0.00 | 0.00 | 82 | 1012.7 |
| 20260906124545 | 78 | 307 | 0.0 | 0.9 | 0.00 | 0.00 | 0.00 | 86 | 1012.5 |
| 20260906123043 | 76 | 294 | 0.0 | 0.9 | 0.00 | 0.00 | 0.00 | 88 | 1012.2 |
| 20260906121542 | 76 | 295 | 0.0 | 0.9 | 0.00 | 0.00 | 0.00 | 89 | 1012.2 |
| 20260906120043 | 76 | 314 | 0.0 | 0.0 | 0.00 | 0.00 | 0.00 | 89 | 1011.9 |
| 20260906114547 | 76 | 305 | 0.0 | 0.0 | 0.00 | 0.00 | 0.00 | 88 | 1012.1 |
| 20260906113037 | 76 | 281 | 0.0 | 0.9 | 0.00 | 0.00 | 0.00 | 88 | 1011.9 |
| 20260906111543 | 76 | 332 | 0.0 | 1.7 | 0.00 | 0.00 | 0.00 | 88 | 1011.8 |
| 20260906110036 | 76 | 304 | 0.0 | 0.9 | 0.00 | 0.00 | 0.00 | 88 | 1011.8 |
| 20260906104536 | 76 | 310 | 0.0 | 1.7 | 0.00 | 0.00 | 0.00 | 88 | 1011.7 |
| 20260906103034 | 76 | 286 | 0.0 | 0.9 | 0.00 | 0.00 | 0.00 | 88 | 1011.6 |
| 20260906101536 | 76 | 309 | 0.0 | 0.0 | 0.00 | 0.00 | 0.00 | 87 | 1011.6 |
| 20260906100034 | 76 | 276 | 0.0 | 0.0 | 0.00 | 0.00 | 0.00 | 87 | 1011.4 |
| 20260906094529 | 77 | 318 | 0.0 | 0.9 | 0.00 | 0.00 | 0.00 | 88 | 1011.5 |
| 20260906093026 | 77 | 302 | 0.0 | 0.0 | 0.00 | 0.00 | 0.00 | 87 | 1011.4 |
| 20260906091526 | 78 | 323 | 0.0 | 0.9 | 0.00 | 0.00 | 0.00 | 86 | 1011.3 |
| 20260906090025 | 78 | 297 | 0.0 | 0.9 | 0.00 | 0.00 | 0.00 | 85 | 1011.2 |
| 20260906084524 | 78 | 340 | 0.0 | 0.9 | 0.00 | 0.00 | 0.00 | 86 | 1011.2 |
| 20260906083021 | 78 | 303 | 0.0 | 0.9 | 0.00 | 0.00 | 0.00 | 87 | 1011.0 |
| 20260906081522 | 78 | 229 | 0.0 | 0.9 | 0.00 | 0.00 | 0.00 | 88 | 1011.1 |
| 20260906080023 | 79 | 274 | 0.0 | 0.0 | 0.00 | 0.00 | 0.00 | 87 | 1011.1 |
| 20260906074516 | 79 | 332 | 0.0 | 0.0 | 0.00 | 0.00 | 0.00 | 86 | 1011.1 |
| 20260906073016 | 79 | 293 | 0.0 | 0.0 | 0.00 | 0.00 | 0.00 | 84 | 1010.9 |
| 20260906071521 | 80 | 310 | 0.0 | 0.0 | 0.00 | 0.00 | 0.00 | 83 | 1011.1 |
| 20260906070010 | 80 | 311 | 0.0 | 0.0 | 0.00 | 0.00 | 0.00 | 82 | 1011.1 |
| 20260906064508 | 80 | 291 | 0.0 | 0.0 | 0.00 | 0.00 | 0.00 | 80 | 1011.2 |
| 20260906063005 | 81 | 290 | 0.0 | 0.0 | 0.00 | 0.00 | 0.00 | 78 | 1011.3 |
| 20260906061503 | 81 | 297 | 0.0 | 0.0 | 0.00 | 0.00 | 0.00 | 77 | 1011.3 |
| 20260906060001 | 81 | 295 | 0.0 | 0.0 | 0.00 | 0.00 | 0.00 | 76 | 1011.3 |
| 20260906054612 | 81 | 271 | 0.0 | 0.0 | 0.00 | 0.00 | 0.00 | 74 | 1011.4 |
| 20260906053057 | 82 | 300 | 0.0 | 0.0 | 0.00 | 0.00 | 0.00 | 75 | 1011.5 |
| 20260906051558 | 83 | 304 | 0.0 | 0.0 | 0.00 | 0.00 | 0.00 | 72 | 1011.5 |
| 20260906050053 | 83 | 276 | 0.0 | 0.0 | 0.00 | 0.00 | 0.00 | 71 | 1011.4 |
| 20260906044552 | 83 | 276 | 0.0 | 0.0 | 0.00 | 0.00 | 0.00 | 70 | 1011.4 |
| 20260906043052 | 84 | 316 | 0.0 | 0.0 | 0.00 | 0.00 | 0.00 | 69 | 1011.4 |
| 20260906041551 | 84 | 281 | 0.0 | 0.0 | 0.00 | 0.00 | 0.00 | 70 | 1011.3 |
| 20260906040050 | 85 | 269 | 0.0 | 0.0 | 0.00 | 0.00 | 0.00 | 69 | 1011.2 |
| 20260906034601 | 85 | 281 | 0.0 | 0.0 | 0.00 | 0.00 | 0.00 | 68 | 1011.1 |
| 20260906033156 | 86 | 283 | 0.0 | 0.0 | 0.00 | 0.00 | 0.00 | 66 | 1011.0 |
| 20260906031550 | 86 | 294 | 0.0 | 0.9 | 0.00 | 0.00 | 0.00 | 64 | 1010.9 |
| 20260906030048 | 87 | 347 | 0.0 | 0.9 | 0.00 | 0.00 | 0.00 | 64 | 1010.8 |
| 20260906024553 | 87 | 293 | 0.0 | 0.0 | 0.00 | 0.00 | 0.00 | 62 | 1010.5 |
| 20260906023048 | 88 | 320 | 0.0 | 0.9 | 0.00 | 0.00 | 0.00 | 62 | 1010.4 |
| 20260906021551 | 88 | 318 | 0.0 | 0.9 | 0.00 | 0.00 | 0.00 | 61 | 1010.1 |
| 20260906020046 | 89 | 314 | 0.0 | 0.0 | 0.00 | 0.00 | 0.00 | 60 | 1009.9 |
| 20260906014550 | 89 | 326 | 0.0 | 1.7 | 0.00 | 0.00 | 0.00 | 60 | 1009.8 |
| 20260906013047 | 90 | 306 | 0.0 | 1.7 | 0.00 | 0.00 | 0.00 | 58 | 1009.6 |
| 20260906011545 | 91 | 311 | 0.0 | 0.9 | 0.00 | 0.00 | 0.00 | 56 | 1009.4 |
| 20260906004556 | 93 | 323 | 0.0 | 1.7 | 0.00 | 0.00 | 0.00 | 53 | 1009.5 |
| 20260906003044 | 94 | 333 | 0.0 | 1.7 | 0.00 | 0.00 | 0.00 | 51 | 1009.4 |
| 20260906001558 | 94 | 290 | 0.0 | 1.7 | 0.00 | 0.00 | 0.00 | 50 | 1009.4 |
| 20260906000043 | 95 | 317 | 0.0 | 0.9 | 0.00 | 0.00 | 0.00 | 48 | 1009.4 |
| 20260905234542 | 96 | 307 | 0.0 | 0.9 | 0.00 | 0.00 | 0.00 | 46 | 1009.3 |
| 20260905233042 | 97 | 276 | 0.0 | 6.1 | 0.00 | 0.00 | 0.00 | 43 | 1009.2 |
| 20260905231541 | 97 | 247 | 0.0 | 2.6 | 0.00 | 0.00 | 0.00 | 43 | 1009.2 |
| 20260905230041 | 97 | 307 | 0.0 | 2.6 | 0.00 | 0.00 | 0.00 | 42 | 1009.2 |
| 20260905224539 | 98 | 273 | 0.9 | 3.5 | 0.00 | 0.00 | 0.00 | 43 | 1009.2 |
| 20260905223049 | 99 | 307 | 0.9 | 4.3 | 0.00 | 0.00 | 0.00 | 42 | 1009.2 |
| 20260905221542 | 99 | 311 | 0.9 | 3.5 | 0.00 | 0.00 | 0.00 | 41 | 1009.4 |
| 20260905220035 | 100 | 319 | 0.0 | 0.9 | 0.00 | 0.00 | 0.00 | 38 | 1009.4 |
| 20260905214538 | 100 | 289 | 0.0 | 4.3 | 0.00 | 0.00 | 0.00 | 36 | 1009.6 |
| 20260905213034 | 100 | 320 | 0.0 | 1.7 | 0.00 | 0.00 | 0.00 | 37 | 1009.8 |
| 20260905211529 | 99 | 301 | 0.0 | 3.5 | 0.00 | 0.00 | 0.00 | 38 | 1010.0 |
| 20260905210043 | 100 | 319 | 0.0 | 2.6 | 0.00 | 0.00 | 0.00 | 37 | 1010.2 |
| 20260905204530 | 100 | 302 | 0.0 | 5.2 | 0.00 | 0.00 | 0.00 | 40 | 1010.2 |
| 20260905203025 | 100 | 276 | 0.9 | 4.3 | 0.00 | 0.00 | 0.00 | 38 | 1010.4 |
| 20260905201528 | 99 | 283 | 0.0 | 3.5 | 0.00 | 0.00 | 0.00 | 39 | 1010.7 |
| 20260905200032 | 99 | 270 | 0.0 | 4.3 | 0.00 | 0.00 | 0.00 | 41 | 1010.9 |
| 20260905194523 | 99 | 316 | 0.0 | 6.1 | 0.00 | 0.00 | 0.00 | 39 | 1010.9 |
| 20260905193023 | 102 | 310 | 2.6 | 7.8 | 0.00 | 0.00 | 0.00 | 37 | 1011.1 |
| 20260905191522 | 101 | 319 | 0.9 | 3.5 | 0.00 | 0.00 | 0.00 | 38 | 1011.1 |
| 20260905190021 | 100 | 314 | 0.0 | 5.2 | 0.00 | 0.00 | 0.00 | 39 | 1011.4 |
| 20260905184532 | 100 | 283 | 0.0 | 4.3 | 0.00 | 0.00 | 0.00 | 42 | 1011.5 |
| 20260905183023 | 98 | 280 | 0.0 | 2.6 | 0.00 | 0.00 | 0.00 | 44 | 1011.8 |
| 20260905181517 | 98 | 317 | 0.0 | 4.3 | 0.00 | 0.00 | 0.00 | 41 | 1012.0 |